Location: Unspecified
(38.0000°N, 97.0000°W)
Time: 01:03:38
(UTC+00:00)

Daily predictions for brighter satellites

Satellite Brightness Start Highest point End
(mag) Time Altitude Azimuth Time Altitude Azimuth Time Altitude Azimuth
Meteor 1-23 Rocket 4.3 00:39:46 10° N 00:45:36 83° E 00:51:19 10° S
Cosmos 1190 Rocket 4.0 00:43:58 10° S 00:49:08 63° ESE 00:54:17 10° NNE
Cosmos 1954 Rocket 4.3 00:47:00 10° S 00:51:50 42° ESE 00:56:41 10° NNE
Cosmos 2219 4.5 00:47:46 10° N 00:52:13 22° NE 00:56:38 10° ESE
DMSP B5D2-2 4.5 00:47:50 10° N 00:53:06 71° WNW 00:58:20 10° SSW
Spot 1 4.0 00:49:39 10° NNE 00:54:01 85° ESE 00:58:09 10° SSW
YAOGAN 1 3.0 00:53:44 10° SE 00:57:47 41° ENE 01:01:52 10° N
USA 267 4.0 00:52:58 10° SSE 00:59:20 54° SW 01:05:44 10° NW
Cosmos 1242 Rocket 4.0 00:57:07 10° SE 00:59:31 17° E 01:01:55 10° NE
COBE Rocket 4.1 00:54:57 10° SSE 00:59:47 49° ENE 01:04:30 10° N
CZ-2C R/B 1.6 00:58:23 10° SW 01:01:28 36° SSE 01:04:14 13° ESE
In-Cosmos 22 4.2 00:58:06 10° N 01:03:19 55° ENE 01:08:29 10° SSE
Cosmos 407 Rocket 4.2 00:59:15 10° SSW 01:04:16 58° WNW 01:09:24 10° N
Hubble Space Telescope 3.0 01:03:42 10° S 01:05:17 12° SSE 01:06:51 10° SE
Cosmos 1626 2.9 01:02:17 10° NNE 01:05:31 30° ENE 01:08:44 10° SE
BREEZE M DEB (TANK) 4.2 00:59:25 10° SSW 01:08:10 28° SSE 01:11:10 14° E
Okean-O 4.3 01:11:08 14° E 01:12:34 16° ENE 01:15:14 10° NNE
Cosmos 1869 Rocket 3.7 01:08:37 10° S 01:13:03 82° W 01:17:33 10° N
Cosmos 1763 Rocket 4.2 01:10:07 10° N 01:14:38 32° ENE 01:18:22 14° ESE
Cosmos 1634 Rocket 3.9 01:10:36 10° N 01:16:45 67° E 01:22:52 10° SSE
H-2A R/B 3.9 01:12:30 10° W 01:17:05 16° SW 01:19:27 10° S
Cosmos 2263 Rocket 4.1 01:16:12 10° NNE 01:17:54 11° NE 01:19:28 10° ENE
Cosmos 2279 Rocket 4.3 01:12:45 10° N 01:18:40 43° ENE 01:24:34 10° SSE
ASTEX 1 3.6 01:20:57 10° N 01:25:55 76° W 01:30:52 10° SSW
Cosmos 1697 Rocket 2.6 01:24:36 10° SSW 01:30:11 77° ESE 01:35:49 10° NNE
Aureole 1 4.3 01:27:24 10° S 01:30:24 46° ESE 01:33:18 10° NNE
KORONAS-FOTON 3.7 01:26:55 10° N 01:30:48 79° E 01:34:39 10° S
Cosmos 1674 2.5 01:31:47 10° N 01:35:33 84° E 01:39:16 10° S
Cosmos 1707 3.3 01:32:42 10° NNW 01:36:25 56° W 01:40:08 10° S
Lacrosse 5 1.9 01:32:04 10° NW 01:37:10 84° SW 01:40:51 19° SE
Cosmos 676 Rocket 4.1 01:32:56 10° SSW 01:38:07 77° WNW 01:43:19 10° NNE
Cosmos 1733 3.1 01:35:57 10° S 01:39:39 60° E 01:43:22 10° NNE
Meteor 2-10 4.3 01:36:50 10° S 01:42:21 52° E 01:47:49 10° NNE
Cosmos 1733 Rocket 2.9 01:38:01 10° S 01:42:22 68° E 01:46:47 10° NNE
GPS 2-04 Rocket1 3.6 01:42:18 10° W 01:45:27 31° SSW 01:46:32 26° SSE
Landsat 5 3.5 01:42:30 10° NNE 01:46:59 66° ESE 01:51:25 10° S
CZ-4B R/B 3.9 01:42:25 10° S 01:47:34 52° W 01:52:49 10° NNW
Okean 2 3.3 01:46:22 10° N 01:50:32 89° E 01:54:19 12° S
SL-14 R/B 3.8 01:46:59 10° N 01:50:22 37° ENE 01:50:22 37° ENE
Cosmos 2227 Rocket 2.1 01:47:11 10° NNW 01:52:52 82° ENE 01:56:49 21° SSE
Okean O Rocket 2.4 01:50:31 10° S 01:54:42 51° W 01:58:57 10° NNW
CZ-4 R/B 2.0 01:51:14 10° S 01:55:16 57° W 01:59:23 10° NNW
NOSS 3-1 (A) 4.2 01:48:58 10° NNW 01:56:38 63° NE 02:01:41 28° SE
H-2A R/B 4.4 01:59:55 16° NNE 01:59:55 16° NNE 02:01:09 10° NNE
Cosmos 1726 3.5 02:02:48 25° NNE 02:02:48 25° NNE 02:04:31 10° NNE
Cosmos 2369 3.6 01:56:07 10° SSW 02:01:49 75° ESE 02:07:32 10° NNE
CZ-4C R/B 4.1 02:00:08 10° NW 02:07:28 45° WSW 02:15:39 10° S
Cosmos 1980 Rocket 2.0 02:02:08 10° SSW 02:07:46 78° ESE 02:13:24 10° NNE
Cosmos 2297 Rocket 3.2 02:02:35 10° NW 02:07:59 46° WSW 02:13:21 10° S
CSL-04 Rocket 3.5 02:08:55 37° SSE 02:11:02 73° ENE 02:16:22 10° N
Cosmos 1805 3.9 02:07:36 10° SSW 02:11:23 54° W 02:15:12 10° N
NOSS 2-2 (D) 4.4 02:09:29 10° NNW 02:14:52 69° ENE 02:17:03 44° SE
Meteor 2-14 Rocket 4.4 02:08:51 10° S 02:14:56 87° W 02:21:02 10° N
Cosmos 468 Rocket 4.0 02:12:31 10° NNW 02:17:40 78° WSW 02:19:39 38° S
OBJECT-B 3.0 02:20:01 18° NW 02:20:01 18° NW 02:20:57 10° NNW
ATLAS 5 CENTAUR R/B 4.4 02:03:01 10° SW 02:18:39 21° S 02:22:39 17° SSE
Cosmos 1850 Rocket 4.0 02:16:49 10° SSW 02:22:00 82° WNW 02:27:15 10° NNE
JB-3 4.5 02:19:30 10° N 02:23:34 73° WNW 02:23:55 67° WSW
Meteor 1-12 Rocket 4.2 02:18:13 10° S 02:24:05 72° E 02:30:05 10° NNE
Meteor 2-21 Rocket 4.2 02:18:17 10° S 02:24:20 77° E 02:30:23 10° N
IGS 5A 3.5 02:24:33 77° W 02:24:33 77° W 02:28:37 10° NNW
IRS-1C Rocket 3.9 02:24:38 56° SSE 02:25:47 87° ENE 02:31:05 10° NNW
Landsat 7 3.9 02:26:50 62° NNE 02:26:50 62° NNE 02:30:57 10° N
Nadezhda 4 Rocket 3.9 02:20:21 10° S 02:26:40 89° W 02:33:02 10° N
Resurs 01 Rocket 3.5 02:30:34 19° NNE 02:30:34 19° NNE 02:32:04 10° N
SJ-6B 3.8 02:34:44 42° WNW 02:34:44 42° WNW 02:37:42 10° NNW
Cosmos 2221 Rocket 4.4 02:30:27 10° NNW 02:34:48 50° W 02:36:02 38° SW
Cosmos 2219 3.9 02:31:05 10° NNW 02:36:40 52° WSW 02:39:04 32° SSW
CZ-2C R/B 3.3 02:36:47 10° WSW 02:37:57 19° WSW 02:37:57 19° WSW
Cosmos 2292 Rocket 4.3 02:34:38 10° S 02:41:49 90° E 02:47:15 10° N
Cosmos 841 Rocket 3.7 02:37:55 10° NNW 02:42:15 62° N 02:42:15 62° N
Cosmos 1674 Rocket 4.3 02:39:33 10° NNW 02:43:23 51° WNW 02:43:23 51° WNW
Hubble Space Telescope 3.5 02:42:37 10° SW 02:42:44 10° SW 02:42:44 10° SW
Meteor 2-16 Rocket 4.4 02:43:36 42° SSW 02:45:50 85° W 02:52:01 10° N
Okean-O 3.6 02:48:42 44° W 02:48:42 44° W 02:52:52 10° NNW
Gbstr 26 Del rocket 4.3 02:43:55 10° SW 02:51:38 85° SE 02:53:52 53° NE
Cosmos 540 Rocket 4.2 02:49:16 10° NNW 02:54:09 47° WSW 02:54:21 47° WSW
Cosmos 1092 Rocket 4.0 02:58:04 73° N 02:58:04 73° N 03:03:42 10° N
Cosmos 2082 4.0 02:54:01 10° NNW 02:59:25 64° W 02:59:25 64° W
Cosmos 2263 Rocket 2.9 02:57:07 10° NNW 03:01:10 47° N 03:01:10 47° N
USA 281 4.5 03:06:51 27° NNE 03:06:51 27° NNE 03:10:39 10° N
USA 229 DEB 4.2 03:12:50 10° NW 03:20:17 63° WSW 03:20:40 62° SW
USA 229 4.1 03:12:55 10° NW 03:20:22 64° WSW 03:20:44 63° SW
CZ-2C R/B 4.0 09:17:54 10° NNE 09:21:53 32° E 09:21:53 32° E
USA 234 3.9 09:25:06 10° ENE 09:31:19 45° SE 09:32:06 43° SSE
SL-19 R/B 4.5 09:42:56 10° NNE 09:49:12 79° ESE 09:49:58 68° SSE
PAYLOAD A 4.2 09:47:14 10° NNE 09:51:37 61° ENE 09:51:37 61° ENE
Cosmos 1833 Rocket 4.1 09:55:46 17° SSE 09:59:26 34° ESE 10:04:29 10° NE
Gbstr 26 Del rocket 3.9 10:04:28 53° WNW 10:06:12 76° SW 10:12:18 10° SE
Tiangong 0.3 10:10:40 24° ENE 10:10:40 24° ENE 10:12:11 10° ENE
ARIANE 5 R/B 2.9 10:05:13 10° NNE 10:10:12 58° ESE 10:12:45 28° S
Helios 1B rocket 2.7 10:11:59 10° NNE 10:15:18 59° N 10:15:18 59° N
CZ-3 R/B 4.2 10:03:17 22° SW 10:18:37 40° S 10:27:31 10° ESE
FENGYUN 3A 4.1 10:13:34 10° N 10:18:02 43° NW 10:18:02 43° NW
YAOGAN 6 4.2 10:16:18 10° NNE 10:19:38 33° E 10:21:56 17° SSE
IRS-1C 4.0 10:17:20 10° NNE 10:22:42 89° WNW 10:25:09 34° SSW
USA 307 3.8 10:25:12 35° SSE 10:26:08 41° SE 10:30:03 10° ENE
Aureole 3 3.5 10:25:57 40° S 10:27:37 89° ESE 10:31:33 10° N
Centaur D AC-29 3.0 10:26:53 29° SSW 10:29:12 40° SSE 10:48:13 10° ESE
ERS-1 4.5 10:27:20 10° NNE 10:32:33 90° S 10:36:19 19° SSW
Cosmos 2098 Rocket 4.4 10:33:48 10° NNE 10:36:16 25° E 10:38:48 10° SE
Cosmos 2251 Rocket 3.4 10:31:31 10° NNW 10:36:48 85° WSW 10:42:01 10° SSE
BREEZE-M DEB (TANK) 3.9 10:37:07 15° N 10:37:07 15° N 10:38:40 10° NNE
Cosmos 1371 Rocket 4.4 10:33:31 10° S 10:38:45 62° ESE 10:43:57 10° NNE
Atlas Centaur 2 3.5 10:35:57 27° SW 10:39:25 41° S 10:45:36 10° ESE
X-37B 0.9 10:40:04 56° ENE 10:40:04 56° ENE 10:42:26 10° ENE
Cosmos 1151 Rocket 2.8 10:37:37 27° S 10:39:52 86° W 10:44:09 10° N
USA 306 2.9 10:40:38 44° SSW 10:41:48 73° SE 10:45:55 10° NE
Sich 1 2.9 10:38:55 10° NNW 10:43:10 60° W 10:47:21 10° S
ALOS 3.4 10:39:31 10° NNW 10:42:41 26° NW 10:42:41 26° NW
Meteor 1-14 Rocket 4.2 10:38:12 10° NNW 10:44:06 68° W 10:49:50 10° S
CZ-2C R/B 2.5 10:38:58 10° SSE 10:44:08 90° W 10:49:25 10° NNW
SL-08 R/B 3.6 10:41:01 10° SSE 10:45:35 68° ENE 10:50:14 10° N
Envisat 3.2 10:41:22 10° NNE 10:46:27 72° E 10:51:30 10° S
Cosmos 2123 Rocket 4.4 10:43:02 10° NNW 10:48:45 39° W 10:54:28 10° SSW
DELTA 2 DEB (DPAF) 4.0 10:45:29 10° SSE 10:49:53 86° WSW 10:54:19 10° NNW
H-2A R/B 3.8 10:46:34 10° NNE 10:50:04 43° E 10:53:32 10° S
Cosmos 1484 Rocket 2.8 10:50:41 10° N 10:54:36 61° WNW 10:56:59 22° SSW
METEOR-M 4.5 10:51:00 10° N 10:56:01 42° WNW 10:58:56 23° SW
BREEZE-M DEB (TANK) 4.3 10:57:50 10° NNW 11:00:22 25° NE 11:05:46 10° E
CZ-2C R/B 3.4 10:56:20 10° NNW 11:00:26 26° WNW 11:01:14 24° W
USA 308 2.8 10:58:34 27° SW 11:00:44 87° SE 11:04:53 10° NE
Cosmos 1356 3.2 11:00:18 31° SW 11:01:35 57° W 11:04:48 10° N
Meteor 1-11 Rocket 4.1 10:56:30 10° N 11:02:30 74° E 11:08:26 10° SSE
IRS-P3 4.5 10:57:33 10° N 11:02:34 42° WNW 11:06:21 17° SW
Cosmos 1980 Rocket 4.3 10:58:11 10° N 11:02:54 27° ENE 11:07:35 10° ESE
Cosmos 1605 Rocket 4.3 10:59:58 15° SW 11:04:38 40° WNW 11:10:20 10° N
Cosmos 1140 Rocket 3.4 11:00:32 10° NNW 11:05:41 66° WSW 11:10:50 10° S
Cosmos 2084 3.3 11:03:08 10° NW 11:07:13 72° WSW 11:11:31 10° SSE
Cosmos 1536 3.3 11:03:40 10° N 11:07:42 63° E 11:11:42 10° SSE
Cosmos 2056 Rocket 3.4 11:04:21 10° SSW 11:09:29 73° WNW 11:14:37 10° NNE
Orbus 7S? 3.8 11:09:03 27° WNW 11:10:04 35° NW 11:14:14 10° NNE
Cosmos 1656 3.7 11:06:16 10° NNW 11:11:50 56° WSW 11:17:21 10° S
USA 234 3.6 11:08:03 10° NE 11:14:19 51° NW 11:19:27 16° WSW
DELTA 2 R/B (1) 3.9 11:11:29 17° SW 11:15:46 62° SSE 11:21:17 10° ENE
ATLAS CENTAUR R/B 2.1 11:11:40 10° SSW 11:16:24 69° ESE 11:21:15 10° NE
ERBS 3.3 11:17:52 21° WNW 11:18:35 23° NW 11:20:58 10° NNE
Cosmos 1190 Rocket 4.0 11:13:32 10° NNW 11:18:45 89° WSW 11:23:58 10° SSE
Cosmos 1459 Rocket 4.1 11:13:24 10° S 11:19:42 88° E 11:26:06 10° N
Meteor 1-29 3.3 11:17:20 10° N 11:20:25 38° WNW 11:23:29 10° SW
Cosmos 1515 4.2 11:19:13 10° SSW 11:22:40 35° W 11:26:08 10° N
Spot 4 Rocket 4.1 11:18:10 10° N 11:23:13 58° WNW 11:28:14 10° SSW
Cosmos 1420 Rocket 4.0 11:18:26 10° SSW 11:23:38 64° WNW 11:28:50 10° NNE
NOAA 11 4.2 11:18:47 10° NNE 11:24:18 88° ESE 11:29:46 10° SSW
GP-B 3.2 11:22:00 10° S 11:26:25 85° E 11:30:51 10° N
CZ-2D R/B 4.5 11:23:32 10° NNW 11:26:44 24° WNW 11:29:24 13° WSW
Cosmos 1346 Rocket 3.4 11:25:35 10° SW 11:29:15 35° WNW 11:32:57 10° N
Cosmos 44 Rocket 3.8 11:25:38 10° SSW 11:30:18 61° ESE 11:34:57 10° NE
Cosmos 2360 4.2 11:24:54 10° NNW 11:30:38 87° WSW 11:36:20 10° SSE
USA 305 3.5 11:29:13 15° WSW 11:32:19 39° NW 11:36:14 10° NE
Cosmos 407 Rocket 3.9 11:28:29 10° NNW 11:33:26 40° WSW 11:38:22 10° S
Meteor 1-19 Rocket 4.4 11:29:14 10° S 11:34:43 76° E 11:40:09 10° NNE
SJ-12 3.8 11:35:03 10° N 11:39:07 82° WNW 11:43:11 10° SSW
Meteor 1-4 Rocket 2.5 11:36:16 10° NNW 11:39:50 59° W 11:43:24 10° S
BREEZE M DEB (TANK) 3.1 11:37:55 13° W 11:40:01 42° NNW 11:44:30 10° NE
Cosmos 1633 Rocket 3.6 11:36:28 10° NNW 11:40:26 35° W 11:44:21 10° SSW
Cosmos 1939 Rocket 4.3 11:37:31 10° NNE 11:41:24 43° E 11:45:13 10° S
COSMOS 2406 3.3 11:37:38 10° SW 11:43:14 60° WNW 11:48:51 10° NNE
Cosmos 1833 Rocket 3.5 11:38:22 10° WSW 11:43:19 31° WNW 11:48:18 10° N
Cosmos 2173 Rocket 4.1 11:38:30 10° SSW 11:44:31 56° W 11:50:32 10° N
CZ-2C R/B 3.1 11:42:22 10° N 11:45:53 40° WNW 11:49:27 10° SW
Tiangong -2.1 11:43:00 10° WNW 11:46:08 80° NNE 11:49:16 10° ESE
Cosmos 1933 Rocket 3.7 11:42:47 10° N 11:47:15 84° E 11:51:39 10° S
ARIANE 5 R/B 4.1 11:45:49 10° NNW 11:48:45 16° WNW 11:51:40 10° W
CZ-4C R/B 3.9 11:45:10 10° SSW 11:48:52 38° W 11:52:46 10° NNW
Cosmos 2346 Rocket 4.5 11:43:02 10° NNW 11:48:58 59° W 11:54:54 10° S
Cosmos 2082 Rocket 2.2 11:44:04 10° SSW 11:49:39 71° WNW 11:55:16 10° NNE
SKYMED 2 3.6 11:46:08 10° SSE 11:50:28 87° WSW 11:54:50 10° NNW
Cosmos 1743 3.4 11:47:29 10° NNW 11:50:52 31° W 11:54:15 10° SSW
Cosmos 1441 Rocket 4.2 11:49:24 10° SW 11:52:28 24° WNW 11:55:33 10° NNW
YAOGAN 6 4.5 11:50:45 10° NW 11:52:34 13° WNW 11:54:23 10° W
Okean 1 3.4 11:49:44 10° SSW 11:53:42 59° W 11:57:43 10° N
ASTRO E2 4.1 11:52:15 10° SW 11:55:40 29° S 11:59:04 10° ESE
